Flag for U.S.A. Weather past 2 weeks in Clarksville, Tennessee, U.S.A.

Now
71 °F

Low clouds.


Feels Like: 67 °F
Forecast: 67 / 79 °F
Wind: 3 mph from West

Location: Outlaw Field

Current Time: Jul 4, 2015 at 4:26:23 AM

Latest Report: Jul 4, 2015 at 3:52 AM


Visibility: 10 mi

Pressure: 29.90 "Hg

Humidity: 93%

Dew point: 69 °F

Location of ClarksvilleLocation

Historic Weather in Clarksville — Graph

°F

Clarksville temperature yesterday

Maximum temperature yesterday: 80 °F (at 1:52 PM)
Minimum temperature yesterday: 70 °F (at 10:52 PM)
Average temperature yesterday: 74 °F

Past Weeks' High & Low Weather Summary

 TemperatureHumidityPressure
High91 °F (Jun 23, 3:52 PM)100% (Jun 30, 4:59 AM)30.14 "Hg (Jun 30, 4:59 AM)
Low57 °F (Jun 28, 4:52 AM)43% (Jun 24, 4:52 PM)29.80 "Hg (Jun 19, 8:52 PM)
Average77 °F78%29.94 "Hg
* Reported Jun 19 2:52 AM — Jul 4 2:52 AM, Clarksville, Weather by CustomWeather, © 2015

Note: Actual official high and low records may vary slightly from our data, if they occured in-between our weather recording intervals... More about our weather records

Advertising

Clarksville weather history for previous 24 hours

 ConditionsComfort  
Time TempWeatherWind HumidityBarometerVisibility
2:52 AM
Sat, Jul 4
71 °FMostly cloudy.No wind93%29.89 "Hg10 mi
1:52 AM71 °FMostly cloudy.No wind93%29.89 "Hg10 mi
12:52 AM71 °FPassing clouds.3 mph93%29.89 "Hg10 mi
11:52 PM
Fri, Jul 3
71 °FPassing clouds.5 mph93%29.91 "Hg10 mi
10:52 PM70 °FPassing clouds.6 mph93%29.90 "Hg10 mi
9:52 PM73 °FOvercast.5 mph84%29.89 "Hg10 mi
8:52 PM73 °FPartly cloudy.5 mph84%29.87 "Hg10 mi
7:52 PM74 °FMostly cloudy.5 mph79%29.88 "Hg10 mi
6:52 PM75 °FScattered clouds.10 mph79%29.86 "Hg10 mi
5:52 PM77 °FBroken clouds.7 mph77%29.87 "Hg10 mi
4:52 PM78 °FBroken clouds.14 mph76%29.84 "Hg10 mi
3:52 PM80 °FPassing clouds.13 mph71%29.84 "Hg10 mi
2:52 PM79 °FSunny.10 mph74%29.86 "Hg10 mi
1:52 PM80 °FPassing clouds.9 mph71%29.88 "Hg10 mi
12:52 PM79 °FPartly sunny.10 mph74%29.88 "Hg10 mi
11:52 AM77 °FMore clouds than sun.10 mph79%29.88 "Hg10 mi
10:52 AM75 °FMore clouds than sun.7 mph85%29.90 "Hg10 mi
9:52 AM74 °FOvercast.8 mph85%29.88 "Hg10 mi
8:52 AM73 °FOvercast.6 mph88%29.87 "Hg10 mi
7:52 AM73 °FBroken clouds.8 mph90%29.84 "Hg10 mi
7:02 AM72 °FLow clouds.6 mph97%29.86 "Hg10 mi
6:52 AM72 °FOvercast.5 mph93%29.84 "Hg10 mi
5:52 AM72 °FThunderstorms. Broken clouds.5 mph93%29.83 "Hg8 mi
4:52 AM72 °FLow clouds.7 mph93%29.83 "Hg10 mi
Weather by CustomWeather, © 2015

See weather overviewHow to use our weather pages